Overview Statistics Trail Chart Weather Telemetry Raw packets
 

This is the latest recevied weather packets stored in our database for station/object SQ5DCP-1. If no packets are shown the sender has not sent any weather packets the latest 10 day(s).

<< 1 2 3 4 5 6 7 >>
Time Temp. Humidity Pressure Rain* Wind** Luminosity Snow
1788614136 20.56° C 49% 1014.5 hPa 0 mm - - -
1788613833 20.56° C 48% 1014.5 hPa 0 mm - - -
1788613532 20.56° C 48% 1014.6 hPa 0 mm - - -
1788613230 20.56° C 51% 1014.6 hPa 0 mm - - -
1788612928 20.56° C 53% 1014.5 hPa 0 mm - - -
1788612626 20.56° C 52% 1014.6 hPa 0 mm - - -
1788612325 20° C 53% 1014.6 hPa 0 mm - - -
1788612023 20.56° C 53% 1014.6 hPa 0 mm - - -
1788611721 20.56° C 52% 1014.5 hPa 0 mm - - -
1788611419 21.11° C 52% 1014.6 hPa 0 mm - - -
1788611117 20.56° C 52% 1014.6 hPa 0 mm - - -
1788610835 20.56° C 51% 1014.5 hPa 0 mm - - -
1788610533 20.56° C 52% 1014.5 hPa 0 mm - - -
1788610231 20° C 52% 1014.5 hPa 0 mm - - -
1788609929 20° C 54% 1014.6 hPa 0 mm - - -
1788609628 19.44° C 56% 1014.5 hPa 0 mm - - -
1788609335 19.44° C 57% 1014.6 hPa 0 mm - - -
1788609024 20° C 56% 1014.4 hPa 0 mm - - -
1788608722 20° C 56% 1014.4 hPa 0 mm - - -
1788608420 20° C 58% 1014.4 hPa 0 mm - - -
1788608118 20° C 57% 1014.4 hPa 0 mm - - -
1788607849 20° C 55% 1014.4 hPa 0 mm - - -
1788607816 20° C 55% 1014.4 hPa 0 mm - - -
1788607534 20.56° C 55% 1014.2 hPa 0 mm - - -
1788607232 20.56° C 55% 1014.4 hPa 0 mm - - -

* Rain latest hour (hover to see other rain measurements)
** Current wind speed in m/s (hover to see current wind gust speed)